Weather in Shakhmatovo

Russia / Chelyabinsk Oblast     54°59′08″N   60°38′08″E
temp.,
°C
wind,
m/s
gust,
m/s
humid.,
%
clouds,
%
prec.,
mm/h
press.,
hPa
HPBL,
m
11 may, tue
tue1123:00+11e34475 0.0 102554
02:00+9se22530 0.0 102611
05:00+8e01530 0.0 102710
08:00+13se11425 0.0 1028215
11:00+17se22315 0.0 10281281
14:00+20sse222683 0.0 10271592
17:00+20ssw2226100 0.0 10271704
20:00+17sse2240100 0.0 102819
12 may, wed
wed1223:00+14ssw2238100 0.0 102814
02:00+12wsw33429 0.0 102917
05:00+11wsw33490 0.0 102917
08:00+16w22415 0.0 1029166
11:00+22nnw11274 0.0 10291152
14:00+24wnw1227100 0.0 10281834
17:00+25s24263 0.0 10272333
20:00+21nw114430 0.0 102712
13 may, thu
thu1323:00+16n225678 0.0 102818
02:00+14nw226415 0.0 102812
05:00+14nw33655 0.0 102823
08:00+18nnw35505 0.0 1028316
11:00+22n343799 0.0 10271306
14:00+25n34315 0.0 10261949
17:00+26n34297 0.0 10262215
20:00+22nne224355 0.0 102617
14 may, fri
fri1423:00+17w11465 0.0 102711
02:00+16w11525 0.0 102711
05:00+14wnw115841 0.0 102810
08:00+20ssw124642 0.0 1028181
11:00+25ssw34354 0.0 10271228
14:00+27sw45311 0.0 10262594
17:00+28sw443082 0.0 10242619
20:00+23wnw114477 0.1 102411
15 may, sat
sat1523:00+19n225150 0.1 102413
02:00+17wnw335575 0.0 102425
05:00+16nnw22613 0.0 102513
08:00+21wnw2348100 0.0 1025180
11:00+26nw33300 0.1 10241378
14:00+28wsw34265 0.0 10232902
17:00+27nw4628100 0.0 10212882
20:00